Location: Eppenbrunn
(49.1158°N, 7.5601°E)
Time: 13:06:58
(UTC+00:00)

Cosmos 1328 - Pass Details

Date: 09 April 2020
Orbit: 539 x 544 km, 82.5° (Epoch: 02 June)

Event Time Altitude Azimuth Distance (km) Brightness Sun altitude
Rises 19:04:14 0° 348° (NNW) 2,723 7.9 -8.7°
Reaches altitude 10° 19:06:24 10° 347° (NNW) 1,826 7.0 -9.0°
Maximum altitude 19:10:24 74° 263° (W) 574 4.0 -9.6°
Drops below altitude 10° 19:14:23 10° 178° (S) 1,811 6.2 -10.2°
Sets 19:16:32 0° 177° (S) 2,698 7.1 -10.5°
